User: anonymous   Login
Location: Caltech
(34.1382°N, 118.1253°W)
Time: 12:36:01
(UTC-08:00)
Language:

Cosmos 1975 - Orbit

View from above orbital plane
View from above orbital plane
View from above satellite
View from above satellite

Ground track
Ground track

The orbit data is extracted from the following two-line orbital elements,

1 19573U 88093A   16036.83957355  .00000937  00000-0  66698-4 0  9992
2 19573  82.5207 106.4336 0014645 185.1359 174.9720 15.03419178485068
Epoch (UTC): 05 February 2016 20:08:59
Eccentricity: 0.0014645
inclination: 82.5207°
perigee height: 546 km
apogee height: 566 km
right ascension of ascending node: 106.4336°
argument of perigee: 185.1359°
revolutions per day: 15.03419178
mean anomaly at epoch: 174.9720°
orbit number at epoch: 48506

The dashed part of the orbit path shows where the satellite is in the earth's shadow,  

DLR